Location: Eymir
(36.7333°N, 29.7833°E)
Time: 17:15:08
(UTC+00:00)

Cosmos 1805 Rocket - Pass Details

Date: 14 January 2026
Orbit: 598 x 623 km, 82.5° (Epoch: 17 February)

Event Time Altitude Azimuth Distance (km) Brightness Sun altitude
Rises 04:08:37 0° 205° (SSW) 2,888 6.9 -12.8°
Reaches altitude 10° 04:10:59 10° 213° (SSW) 1,987 6.0 -12.3°
Maximum altitude 04:15:04 37° 281° (WNW) 973 4.1 -11.6°
Drops below altitude 10° 04:19:11 10° 349° (N) 1,997 5.9 -10.8°
Sets 04:21:33 0° 358° (N) 2,905 6.8 -10.3°
